Wind_Speed
29 30 30 30 30 30 30 31 31 31 31 32 32 32 32 31 32 31 31 31 32 32 33 33 34 34 35 35 36 36 37 37 38 38 38 38 39 39 39 40 41 41 42
31 31 31 31 31 31 32 32 32 32 32 32 33 33 32 32 32 32 32 32 33 34 34 34 35 36 36 36 37 37 38 38 39 39 39 40 40 41 41 42 42 42 43
33 33 33 33 33 33 33 33 33 33 33 33 33 33 33 33 33 33 33 34 34 35 36 36 36 37 37 38 38 39 39 39 40 40 41 41 41 42 42 43 43 44 44
34 34 34 34 34 34 34 34 34 34 34 34 34 34 34 34 34 35 35 35 36 36 37 38 38 38 39 40 40 40 41 41 41 42 42 43 43 43 44 44 45 45 46
36 36 36 35 35 35 35 35 35 35 35 35 35 34 35 35 36 36 37 37 38 38 38 39 40 40 40 41 41 42 42 43 43 44 44 45 45 46 46 46 47 47 48
37 36 36 36 36 36 36 36 36 35 35 35 35 36 37 37 37 38 39 39 39 40 40 40 41 41 42 42 43 43 44 44 45 46 46 47 47 48 48 49 49 49 50
37 36 36 36 36 37 37 36 36 36 36 37 37 38 38 38 39 40 41 41 41 41 41 42 42 43 43 43 44 45 45 46 46 47 47 48 48 49 50 50 50 51 51
37 37 37 37 37 37 37 37 37 37 38 38 39 39 39 40 40 42 43 43 43 43 44 44 44 45 45 45 46 46 47 47 47 48 48 49 49 50 50 51 51 52 52
38 38 38 38 38 38 38 38 38 39 39 40 40 41 41 41 41 42 43 44 45 45 45 46 46 46 46 46 46 47 47 48 48 48 49 49 50 50 51 52 52 53 54
38 38 38 38 38 38 38 38 39 40 40 41 42 42 43 43 43 42 44 45 45 46 46 46 47 47 47 47 47 48 48 49 49 49 50 51 51 52 52 53 53 54 55
39 38 38 38 38 39 39 39 40 41 41 42 42 43 43 44 45 45 44 45 45 46 46 47 47 48 48 48 49 49 49 50 50 51 51 52 52 53 54 55 55 56 57
38 38 38 38 38 39 40 40 41 42 42 42 43 44 45 46 46 46 45 45 45 45 46 47 47 48 48 49 49 50 51 51 51 52 53 54 54 55 56 57 57 58 58
38 38 39 39 39 40 41 41 42 43 43 43 44 45 46 46 46 46 46 45 45 45 46 47 47 48 49 49 50 51 52 53 53 54 55 56 57 58 59 60 60 61 62
38 39 39 39 40 40 42 42 42 42 44 45 46 46 47 47 47 47 47 47 46 45 46 47 48 49 49 50 51 52 53 54 55 56 57 58 59 60 62 63 64 64 65
38 39 39 40 41 42 42 42 43 44 45 46 46 46 47 47 47 48 48 48 48 47 46 47 48 49 50 51 53 53 55 56 57 58 60 61 63 64 65 66 67 68 69
39 39 39 41 41 41 42 43 44 45 46 46 47 47 47 47 48 48 48 49 49 49 48 48 50 51 52 53 55 56 57 59 60 62 63 65 67 68 70 71 72 73 74
39 39 40 41 41 42 43 43 44 45 46 47 47 48 48 48 48 49 49 50 51 51 51 51 53 54 55 57 58 60 61 62 64 66 68 69 71 73 74 76 77 78 79
39 39 40 41 42 43 43 44 45 46 47 48 48 48 48 49 50 50 51 51 52 54 55 55 56 57 59 61 62 63 64 66 68 70 72 74 76 77 79 80 81 82 82
38 40 41 41 42 43 44 45 46 47 48 48 48 49 50 50 51 52 53 54 55 57 58 58 59 60 62 64 65 67 69 71 73 75 77 78 79 80 81 82 83 83 83
39 40 41 42 43 44 45 46 47 47 48 48 49 50 51 52 53 54 55 57 58 59 60 61 62 63 65 67 70 72 73 74 76 77 79 79 80 80 80 80 80 79 78
40 41 42 42 43 44 46 47 47 48 49 50 51 52 53 54 55 57 58 59 60 62 63 65 66 67 69 71 74 75 76 76 76 77 77 77 78 76 75 74 73 71 69
40 41 42 42 44 45 46 47 48 49 50 51 52 54 55 56 57 59 60 62 64 65 67 68 69 71 73 75 76 76 77 76 75 74 75 72 72 70 68 65 62 59 57
41 42 42 44 45 46 47 48 49 50 51 53 54 55 56 58 60 62 63 65 66 67 70 72 73 74 75 75 76 76 76 75 73 71 70 67 64 62 59 56 54 51 49
41 42 43 44 46 47 48 49 51 52 53 54 56 57 59 61 63 65 66 67 68 70 72 74 75 75 75 76 76 75 74 72 68 66 65 60 56 53 51 49 46 43 40
41 42 44 45 47 48 50 51 52 54 55 56 58 60 62 64 66 68 69 70 71 72 74 75 76 76 75 75 73 72 70 67 63 58 56 54 49 46 42 39 37 35 33
42 44 45 47 48 49 51 53 54 56 57 58 60 63 65 67 69 70 72 74 75 75 75 75 75 74 73 70 68 67 65 62 58 52 48 47 44 41 36 32 32 31 30
Wind_Direction
291 291 290 289 289 289 289 289 289 289 290 290 289 289 289 288 288 289 288 287 288 287 287 287 286 285 284 284 283 281 280 279 277 276 275 274 273 272 271 270 269 268 267
290 290 289 289 288 289 289 289 289 289 289 289 289 289 288 288 288 288 288 288 288 287 287 286 286 286 285 283 282 281 280 279 278 276 275 274 273 272 271 270 269 268 268
289 289 289 289 288 289 289 288 289 289 289 289 288 288 288 288 288 288 289 288 288 288 288 287 286 286 285 284 283 281 280 279 278 277 276 275 274 272 271 270 270 269 268
288 289 288 288 288 288 288 288 289 289 289 288 288 288 289 289 289 290 290 290 289 289 288 288 287 286 285 284 283 281 280 279 278 277 276 275 274 273 272 271 270 269 269
288 288 288 287 287 288 288 288 288 288 288 288 287 288 289 289 290 290 290 290 290 289 288 288 287 286 285 284 283 282 280 279 278 277 276 275 274 273 273 272 271 270 270
286 287 286 286 287 287 287 287 287 288 288 287 287 288 289 290 291 291 291 291 291 290 289 288 288 287 286 285 284 283 281 280 279 278 277 276 275 274 273 272 271 271 270
285 285 285 285 286 287 286 286 287 288 288 287 288 289 290 290 292 292 293 293 292 291 290 289 288 287 287 286 285 284 282 281 280 279 278 277 276 274 274 273 272 271 271
283 284 285 285 286 286 286 286 287 287 288 288 289 289 290 291 291 293 293 294 294 293 292 291 290 289 288 287 285 284 283 282 281 280 279 278 276 275 274 274 273 272 271
281 283 284 284 285 285 286 286 287 288 289 289 289 290 291 291 291 292 293 294 294 293 293 292 291 291 290 288 287 285 284 283 282 281 280 279 277 276 275 275 274 273 272
280 281 283 283 284 285 286 286 287 289 289 290 291 292 293 293 292 292 293 293 294 293 292 292 292 292 291 290 289 287 286 285 283 282 281 280 279 278 277 276 275 274 273
279 280 282 283 283 285 285 286 288 289 290 292 293 294 294 294 295 294 294 294 294 293 293 292 292 292 291 291 290 288 287 286 285 284 283 282 281 280 279 278 277 276 275
278 279 281 282 283 284 285 287 289 290 291 292 293 294 295 296 296 296 295 294 294 294 294 293 292 292 291 291 290 289 288 288 287 285 284 283 282 282 281 280 279 278 277
277 278 280 282 283 285 286 289 291 291 292 293 294 295 296 297 297 297 296 295 295 295 294 293 293 292 291 291 290 289 289 288 288 287 285 284 284 283 282 281 280 279 278
277 279 281 282 285 286 288 290 291 292 293 295 296 297 297 297 297 297 297 296 296 295 295 294 293 293 293 292 291 290 289 288 287 286 286 285 284 283 282 281 280 279 278
278 279 281 284 286 287 289 290 291 293 295 296 297 298 298 298 298 298 298 297 297 296 295 295 294 293 293 292 292 291 290 289 288 287 286 285 284 284 283 282 281 280 279
278 280 282 284 287 289 290 291 292 293 296 297 297 298 299 298 298 298 298 298 298 297 296 296 295 295 294 293 292 292 291 290 289 288 287 286 285 284 284 283 281 280 279
279 281 283 286 288 289 291 292 293 295 296 297 298 298 299 299 299 299 299 299 298 298 298 297 297 296 295 295 294 293 292 291 291 290 289 288 288 287 285 284 283 282 280
280 281 284 286 288 290 292 293 294 296 297 297 298 299 299 300 300 300 300 299 299 299 299 298 297 297 296 296 295 294 294 294 293 292 291 290 289 288 287 285 284 283 281
281 283 285 288 289 291 293 294 295 296 297 298 299 300 300 300 300 300 300 300 300 300 300 299 299 298 298 297 297 296 295 295 294 293 293 291 290 289 288 287 286 284 282
282 284 287 289 290 292 293 294 295 296 298 299 300 300 301 301 301 301 301 301 301 301 301 301 300 300 300 299 298 297 297 296 296 295 294 293 292 291 290 289 287 286 284
284 286 288 290 291 292 294 295 296 297 298 299 300 300 301 301 302 302 302 302 302 302 302 301 301 301 301 300 299 299 298 297 297 296 295 295 294 293 292 291 289 288 286
286 288 289 291 292 294 295 296 297 298 299 299 300 300 301 302 302 302 303 303 303 303 303 302 302 302 302 301 300 300 299 299 298 298 297 296 295 294 293 292 291 289 287
287 288 290 292 293 294 295 296 297 298 299 300 300 301 302 302 302 303 303 303 304 304 304 303 303 303 302 301 301 301 301 301 301 300 298 298 296 296 294 293 292 291 288
288 289 291 292 294 295 295 296 297 298 299 300 301 302 302 303 303 303 303 304 304 304 304 304 304 304 303 303 302 302 302 302 302 301 300 299 298 297 296 295 293 291 288
289 290 292 293 294 295 296 296 297 298 300 301 302 302 303 303 303 303 304 305 305 304 304 304 304 304 304 303 303 303 303 303 303 302 300 300 300 299 298 295 292 290 288
290 291 293 294 295 296 296 297 298 299 300 301 302 303 303 304 304 304 305 305 305 304 304 304 304 304 304 303 303 303 303 303 303 302 300 300 301 300 297 294 292 290 289
Height
5830 5828 5827 5826 5824 5823 5822 5820 5819 5817 5816 5814 5813 5811 5810 5808 5806 5805 5803 5801 5799 5797 5795 5794 5792 5790 5789 5787 5786 5784 5783 5782 5781 5780 5779 5778 5778 5777 5777 5776 5776 5776 5776
5824 5822 5821 5820 5818 5817 5815 5814 5812 5811 5809 5808 5806 5805 5803 5801 5799 5798 5796 5794 5792 5790 5788 5786 5784 5782 5781 5779 5777 5776 5774 5773 5772 5771 5770 5769 5768 5767 5767 5766 5766 5766 5766
5817 5816 5815 5813 5811 5810 5809 5807 5806 5804 5803 5801 5799 5798 5796 5794 5792 5790 5789 5787 5785 5783 5780 5778 5776 5774 5772 5770 5768 5767 5765 5764 5762 5761 5760 5759 5758 5758 5757 5756 5756 5756 5756
5810 5809 5808 5806 5805 5803 5801 5800 5799 5797 5796 5794 5792 5790 5788 5787 5785 5783 5781 5779 5777 5775 5773 5770 5768 5765 5763 5761 5759 5757 5756 5754 5753 5751 5750 5749 5748 5747 5746 5746 5745 5745 5745
5803 5802 5800 5799 5797 5796 5794 5793 5791 5790 5788 5786 5785 5783 5781 5779 5777 5775 5773 5770 5768 5766 5764 5761 5759 5756 5754 5751 5749 5748 5746 5744 5742 5741 5739 5738 5737 5736 5735 5734 5734 5733 5733
5796 5795 5793 5792 5790 5788 5787 5785 5784 5782 5780 5779 5777 5775 5773 5771 5769 5766 5764 5762 5759 5757 5754 5752 5749 5747 5744 5741 5739 5737 5735 5733 5731 5730 5728 5727 5726 5724 5723 5723 5722 5721 5721
5788 5787 5785 5784 5783 5781 5779 5778 5776 5774 5773 5771 5769 5767 5765 5763 5760 5757 5755 5752 5750 5747 5744 5742 5739 5736 5734 5731 5728 5726 5724 5722 5720 5718 5716 5715 5713 5712 5711 5710 5709 5708 5708
5780 5779 5778 5776 5775 5773 5772 5770 5768 5766 5764 5763 5761 5759 5757 5755 5752 5748 5745 5742 5739 5736 5734 5731 5728 5725 5723 5720 5717 5715 5712 5710 5708 5706 5704 5702 5701 5699 5698 5697 5696 5695 5694
5772 5771 5769 5768 5767 5765 5763 5762 5760 5758 5756 5754 5751 5750 5747 5745 5743 5739 5735 5732 5729 5726 5722 5719 5716 5713 5710 5708 5705 5703 5700 5698 5695 5693 5691 5689 5688 5686 5684 5683 5682 5681 5680
5764 5762 5761 5759 5758 5757 5755 5753 5751 5749 5747 5745 5742 5739 5737 5734 5732 5730 5726 5722 5718 5715 5711 5708 5704 5701 5698 5695 5692 5690 5687 5684 5682 5680 5678 5675 5674 5672 5670 5669 5667 5666 5665
5755 5754 5752 5751 5749 5748 5746 5744 5742 5740 5737 5735 5732 5729 5726 5723 5720 5718 5716 5712 5708 5703 5700 5696 5693 5689 5686 5683 5680 5677 5674 5671 5668 5666 5663 5661 5659 5657 5655 5653 5652 5650 5649
5746 5745 5743 5742 5741 5739 5737 5735 5733 5730 5727 5725 5722 5719 5716 5713 5709 5706 5704 5701 5697 5693 5689 5684 5681 5677 5674 5670 5667 5663 5660 5657 5654 5652 5649 5646 5644 5641 5639 5637 5635 5633 5632
5737 5736 5735 5733 5732 5730 5728 5725 5723 5720 5718 5715 5712 5708 5705 5701 5698 5695 5692 5689 5686 5682 5678 5673 5668 5665 5661 5658 5654 5651 5647 5643 5640 5637 5634 5631 5628 5625 5622 5620 5617 5615 5614
5729 5727 5726 5724 5723 5721 5718 5716 5713 5711 5708 5704 5701 5698 5694 5690 5686 5683 5679 5676 5674 5671 5667 5662 5657 5652 5649 5645 5641 5637 5634 5629 5626 5622 5618 5615 5611 5608 5605 5602 5599 5597 5595
5719 5718 5717 5715 5713 5711 5709 5706 5704 5701 5698 5694 5690 5687 5683 5679 5675 5671 5667 5663 5661 5658 5655 5650 5645 5640 5636 5631 5627 5623 5619 5614 5610 5606 5602 5598 5594 5590 5586 5583 5580 5577 5574
5710 5709 5708 5706 5704 5702 5699 5697 5694 5690 5687 5683 5680 5676 5672 5667 5663 5659 5655 5651 5647 5644 5641 5638 5632 5627 5622 5617 5612 5608 5603 5598 5593 5588 5584 5579 5574 5570 5566 5561 5558 5554 5551
5701 5700 5698 5697 5694 5692 5689 5686 5683 5680 5677 5673 5669 5664 5660 5656 5651 5647 5643 5638 5634 5629 5627 5624 5618 5612 5607 5602 5597 5591 5586 5581 5575 5570 5564 5558 5553 5547 5542 5537 5533 5529 5526
5692 5691 5689 5687 5685 5682 5679 5676 5673 5669 5665 5661 5657 5653 5648 5644 5639 5634 5630 5625 5620 5615 5611 5609 5604 5597 5591 5585 5579 5574 5568 5561 5555 5549 5542 5536 5529 5523 5517 5512 5507 5502 5498
5683 5681 5679 5677 5675 5672 5669 5665 5662 5658 5654 5650 5645 5641 5636 5631 5627 5622 5617 5612 5606 5601 5596 5591 5587 5581 5574 5567 5560 5555 5548 5541 5534 5526 5519 5512 5505 5497 5490 5484 5478 5473 5469
5674 5672 5670 5667 5664 5661 5658 5654 5651 5647 5643 5638 5634 5629 5624 5619 5614 5608 5603 5597 5592 5586 5580 5574 5569 5563 5556 5548 5540 5533 5528 5520 5512 5502 5494 5486 5479 5471 5463 5456 5450 5444 5440
5664 5662 5660 5657 5654 5651 5647 5643 5639 5635 5631 5626 5621 5616 5611 5605 5600 5594 5588 5582 5576 5570 5563 5556 5551 5545 5537 5528 5520 5511 5504 5497 5490 5478 5470 5462 5453 5446 5438 5430 5423 5418 5413
5654 5652 5649 5646 5643 5640 5636 5632 5628 5624 5619 5614 5609 5604 5598 5592 5586 5580 5573 5567 5560 5552 5545 5538 5532 5524 5516 5507 5497 5489 5480 5473 5468 5459 5446 5441 5430 5423 5415 5408 5402 5396 5392
5644 5642 5639 5636 5632 5628 5624 5620 5616 5612 5607 5602 5596 5590 5585 5578 5571 5565 5558 5551 5543 5534 5526 5518 5511 5503 5494 5486 5476 5468 5458 5450 5443 5434 5423 5419 5411 5403 5396 5390 5384 5380 5376
5634 5631 5628 5624 5621 5617 5612 5608 5603 5599 5594 5588 5582 5576 5570 5563 5555 5548 5542 5535 5527 5518 5508 5499 5490 5482 5472 5463 5453 5444 5436 5429 5423 5414 5402 5398 5393 5387 5381 5375 5369 5365 5362
5623 5620 5617 5613 5609 5605 5600 5595 5590 5586 5581 5575 5569 5562 5554 5547 5540 5531 5524 5517 5509 5500 5489 5479 5470 5461 5452 5442 5432 5423 5416 5408 5404 5398 5387 5380 5377 5372 5368 5362 5357 5354 5351
5612 5609 5606 5601 5597 5593 5587 5582 5577 5572 5567 5562 5555 5547 5539 5530 5522 5513 5504 5496 5488 5480 5470 5461 5452 5442 5432 5423 5414 5404 5397 5390 5385 5381 5374 5368 5363 5358 5357 5353 5348 5345 5343